Location: Memphis Junction
(33.8007°N, 89.7968°W)
Time: 02:00:42
(UTC+00:00)

ISS - Visible Passes

Search period start: 19 January 2022 00:00
Search period end: 29 January 2022 00:00
Orbit: 413 x 423 km, 51.6° (Epoch: 18 January)

Date Brightness Start Highest point End Pass type
(mag) Time Alt. Az. Time Alt. Az. Time Alt. Az.
19 Jan -1.6 00:59:16 10° W 01:01:43 19° NNW 01:02:14 18° NNW visible
20 Jan -2.2 00:10:40 10° W 00:13:39 30° NW 00:16:28 11° NNE visible
22 Jan -1.1 00:13:08 10° WNW 00:14:46 13° NNW 00:16:24 10° N visible
